[[{"header":{"parameterUnit":"m.s-1","parameterCategory":1,"la1":30.2991,"la2":30.254,"lo1":-89.0895,"lo2":-89.0444,"dy":0.0017,"dx":0.0017,"nx":28,"ny":28,"refTime":"2024-07-11T21:00:00:Z","depth":0,"parameterNumber":2,"parameterNumberName":"U-component_of_WINDS"},"data":[0,0,0,0,0,0,0,0,0,0,0,0,0,0,0,0,0,0,0,0,0,0,0,0,0,0,0,0,0,0,0,0,0,0,0,0,0,0,0,0,0,0,0,0,0,0,0,0,0,0,0,0,0,0,0,0,0,0,1.8767,1.8768,0,1.8911,1.8912,1.8914,1.8906,1.8904,1.8902,1.89,1.9053,1.9058,1.9064,0,0,0,0,0,0,0,0,0,0,0,0,0,1.8489,1.8494,1.8767,1.8769,1.877,1.891,1.8912,1.8914,1.8907,1.8904,1.8902,1.8899,1.9051,1.9058,1.9065,0,0,0,0,0,0,0,0,0,0,0,0,0,1.8619,1.8496,1.8766,1.8783,1.8786,1.891,1.8912,1.8915,1.8907,1.8904,1.8901,1.8898,1.9048,1.9057,1.9066,1.9184,0,0,1.9093,1.9097,0,0,0,0,0,0,0,0,1.8612,1.8629,1.8779,1.8782,1.8786,1.8887,1.887,1.9005,1.8908,1.8862,1.89,1.8897,1.9,1.9013,1.9047,1.9191,1.9197,1.9094,1.91,1.9103,1.9106,0,0,0,0,0,0,0,1.8603,1.8623,1.8824,1.8781,1.8785,1.8785,1.88,1.8896,1.8947,1.8865,1.8865,1.8882,1.9002,1.9039,1.9051,1.92,1.9094,1.9102,1.9107,1.9111,1.9446,1.945,0,0,0,0,0,0,1.859,1.8616,1.8819,1.8828,1.8689,1.8792,1.8809,1.8858,1.8946,1.8956,1.8884,1.8881,1.9025,1.904,1.9056,1.9199,1.9103,1.9112,1.9117,1.9443,1.9447,1.9451,0,0,0,0,0,0,1.8584,1.8608,1.8813,1.8722,1.8748,1.8801,1.8855,1.8862,1.8899,1.896,1.897,1.8912,1.9023,1.9043,1.9151,1.9204,1.9116,1.9124,1.9439,1.9444,1.9449,1.9486,0,0,0,0,0,0,1.8576,1.8606,1.865,1.8723,1.8753,1.8905,1.8859,1.8868,1.8914,1.8911,1.8989,1.8999,1.9022,1.9138,1.916,1.9215,1.9131,1.9434,1.9441,1.9447,1.948,1.9491,1.9501,0,0,0,0,0,1.8566,1.8656,1.8652,1.8677,1.8809,1.8908,1.8926,1.8949,1.8918,1.8964,1.9003,1.8996,1.9195,1.9149,1.9174,1.9232,1.9431,1.9439,1.9447,1.9475,1.9489,1.9501,0,0,0,0,0,0,1.859,1.8666,1.8663,1.8779,1.8837,1.8907,1.8965,1.8963,1.9033,1.9027,1.9055,1.9072,1.918,1.9217,1.9165,1.935,1.9309,1.9322,1.9322,1.9336,1.9346,1.9335,1.9139,0,0,0,0,0,1.8609,1.8681,1.8744,1.8841,1.887,1.8913,1.8957,1.8969,1.9031,1.9056,1.9103,1.9165,1.9241,1.9291,1.9364,1.9485,1.9502,1.9538,1.9548,1.9557,1.9568,1.9634,1.965,1.9477,1.9477,1.9477,0,0,1.8649,1.8699,1.8744,1.8847,1.8894,1.8969,1.8933,1.9015,1.9072,1.9069,1.9173,1.921,1.9281,1.9395,1.9448,1.9429,1.9619,1.9567,1.9573,1.958,1.9644,1.966,1.9674,1.9482,1.9481,1.948,0,0,1.8759,1.8805,1.889,1.8936,1.9006,1.9034,1.9054,1.9124,1.9148,1.9252,1.9251,1.932,1.9451,1.95,1.9543,1.9671,1.9668,1.9695,1.9751,1.9815,1.9828,1.984,1.9885,1.9901,1.9706,1.9706,1.9706,0,1.8801,1.8913,1.8934,1.9016,1.9061,1.906,1.9147,1.9192,1.9283,1.9315,1.9292,1.9455,1.9502,1.9628,1.9659,1.9694,1.9718,1.9686,1.9824,1.9837,1.9849,1.9892,1.9909,1.9708,1.9708,1.9708,1.9708,0,1.8959,1.9037,1.9098,1.9183,1.9236,1.9319,1.9354,1.9405,1.9413,1.9443,1.9549,1.9606,1.969,1.9721,1.9731,1.9849,1.9835,1.9818,1.9777,1.9867,1.9908,1.9925,1.9712,1.9711,1.9711,1.971,0,0,1.909,1.9185,1.9207,1.9245,1.9321,1.9383,1.9467,1.9547,1.959,1.9653,1.9724,1.9834,1.9818,1.9866,1.9882,1.9938,2.0035,1.9914,1.9916,1.9934,2.0167,2.0179,2.0197,2.0033,2.0036,2.0039,2.0161,0,1.9208,1.9354,1.9375,1.9505,1.9577,1.9577,1.965,1.9706,1.9736,1.9802,1.9837,1.9914,1.9888,1.9916,1.9972,2.0011,2.0082,2.0003,2.01,2.0103,2.0081,2.0219,2.0232,2.0344,2.0177,2.018,2.0182,0,1.9365,1.943,1.9566,1.9631,1.9662,1.9727,1.9802,1.9866,1.9929,1.9947,2.0,2.0008,2.0096,2.0051,2.0172,2.0118,2.0159,2.0184,2.0189,2.0199,2.0147,2.0232,2.0381,2.0398,2.0208,2.0206,2.0204,0,1.9445,1.9567,1.9664,1.9697,1.9776,1.9821,1.9857,1.9916,1.9963,2.0029,2.006,2.0136,2.0178,2.0237,2.0266,2.0231,2.0385,2.0343,2.0403,2.0403,2.0436,2.0433,2.0593,2.0463,2.0463,2.0463,2.0462,0,1.9575,1.9658,1.97,1.976,1.9853,1.9877,1.9969,2.0004,2.0057,2.0123,2.0129,2.0192,2.0226,2.0295,2.0318,2.0415,2.0434,2.0452,2.0457,2.0451,2.0448,2.0478,2.0471,2.0467,2.0466,2.0465,2.0464,0,1.968,1.9712,1.9817,1.9883,1.9901,1.9967,2.0024,2.0082,2.0111,2.0196,2.0217,2.0264,2.0345,2.0379,2.0479,2.0495,2.0605,2.0605,2.0583,2.0585,2.0642,2.0636,2.0826,2.0852,2.0706,2.0707,2.0708,0,1.976,1.9824,1.9895,1.9939,1.9975,2.0047,2.0094,2.012,2.0169,2.0245,2.0294,2.0374,2.0439,2.0569,2.0612,2.0689,2.069,2.0751,2.0702,2.0693,2.069,2.0686,2.0692,2.076,2.0762,2.0763,2.0764,0,1.9898,1.991,1.9977,2.0049,2.0104,2.0163,2.022,2.0256,2.0291,2.0346,2.0427,2.0478,2.0579,2.0659,2.0737,2.0775,2.0776,2.0779,2.0797,2.0791,2.0776,2.0784,2.0607,2.0775,2.0774,2.0773,2.0772,2.0772,1.9993,2.0049,2.0107,2.0181,2.0226,2.0279,2.0337,2.0372,2.044,2.0522,2.0534,2.0621,2.0683,2.0788,2.0829,2.0898,2.0883,2.0909,2.0915,2.0921,2.0924,2.0765,2.0913,2.0912,2.0912,2.0912,2.0912,0,2.0131,2.0168,2.0235,2.0314,2.0372,2.0365,2.0428,2.0478,2.0553,2.0609,2.0673,2.0766,2.0843,2.0892,2.097,2.1016,2.1019,2.1036,2.1033,2.1041,2.0934,2.091,2.1033,2.1033,2.1033,2.1033,2.1032,2.1032,2.0209,2.0303,2.0322,2.0438,2.0476,2.0559,2.0595,2.0644,2.0689,2.0792,2.0855,2.0886,2.094,2.1021,2.1092,2.1105,2.1133,2.1151,2.1163,2.1062,2.1049,2.1037,2.1015,2.1157,2.1157,2.1264,2.1265,2.1266]},{"header":{"parameterUnit":"m.s-1","parameterCategory":1,"la1":30.2991,"la2":30.254,"lo1":-89.0895,"lo2":-89.0444,"dy":0.0017,"dx":0.0017,"nx":28,"ny":28,"refTime":"2024-07-11T21:00:00:Z","depth":0,"parameterNumber":3,"parameterNumberName":"V-component_of_WINDS"},"data":[0,0,0,0,0,0,0,0,0,0,0,0,0,0,0,0,0,0,0,0,0,0,0,0,0,0,0,0,0,0,0,0,0,0,0,0,0,0,0,0,0,0,0,0,0,0,0,0,0,0,0,0,0,0,0,0,0,0,2.5879,2.5879,0,2.592,2.592,2.592,2.5886,2.5884,2.5883,2.5882,2.5919,2.5921,2.5923,0,0,0,0,0,0,0,0,0,0,0,0,0,2.5765,2.5767,2.5878,2.5879,2.588,2.5919,2.592,2.5921,2.5886,2.5884,2.5883,2.5881,2.5918,2.5921,2.5923,0,0,0,0,0,0,0,0,0,0,0,0,0,2.5811,2.5768,2.5878,2.5867,2.5867,2.5919,2.592,2.5921,2.5886,2.5884,2.5882,2.588,2.5917,2.592,2.5924,2.5988,0,0,2.5934,2.5936,0,0,0,0,0,0,0,0,2.5808,2.5815,2.5868,2.5868,2.5868,2.5895,2.5894,2.5943,2.5887,2.5879,2.5881,2.5879,2.5912,2.5916,2.5928,2.599,2.5991,2.5935,2.5937,2.5938,2.5939,0,0,0,0,0,0,0,2.5805,2.5813,2.5895,2.5869,2.5869,2.5858,2.5863,2.5903,2.5907,2.5879,2.5877,2.5882,2.5912,2.5925,2.5929,2.5992,2.5935,2.5938,2.594,2.5941,2.6108,2.611,0,0,0,0,0,0,2.5804,2.5811,2.5893,2.5896,2.5832,2.5862,2.5867,2.5889,2.5906,2.5907,2.5884,2.5881,2.592,2.5925,2.593,2.6006,2.5938,2.5941,2.5943,2.6105,2.6108,2.6111,0,0,0,0,0,0,2.5802,2.5812,2.5892,2.5853,2.5862,2.5867,2.5891,2.589,2.5904,2.591,2.591,2.5898,2.5919,2.5925,2.5974,2.6007,2.5943,2.5946,2.6103,2.6106,2.6109,2.6159,0,0,0,0,0,0,2.5799,2.5811,2.5837,2.5854,2.5864,2.5937,2.5893,2.5893,2.5911,2.5906,2.5923,2.5923,2.5917,2.5969,2.5978,2.601,2.5949,2.61,2.6104,2.6108,2.6154,2.6164,2.6172,0,0,0,0,0,2.5795,2.5848,2.5838,2.5848,2.5897,2.5939,2.5944,2.5938,2.5913,2.5938,2.5942,2.5923,2.6002,2.5974,2.5984,2.6018,2.6098,2.6103,2.6108,2.6151,2.6162,2.6172,0,0,0,0,0,0,2.5833,2.585,2.5839,2.59,2.5918,2.5933,2.5964,2.595,2.5975,2.597,2.5959,2.5963,2.6015,2.6021,2.599,2.6081,2.6046,2.6053,2.6075,2.6086,2.6094,2.6091,2.5952,0,0,0,0,0,2.5849,2.5883,2.5895,2.5947,2.5958,2.5959,2.5977,2.5971,2.5989,2.5996,2.6003,2.602,2.6049,2.6068,2.6094,2.6156,2.6158,2.6184,2.6192,2.62,2.6206,2.6238,2.6249,2.6128,2.6128,2.6128,0,0,2.5881,2.5894,2.5916,2.5956,2.5969,2.6003,2.5966,2.6003,2.6028,2.6001,2.6048,2.6054,2.6072,2.6128,2.6152,2.6134,2.624,2.6206,2.6212,2.6214,2.6244,2.6256,2.6266,2.6132,2.6131,2.613,0,0,2.5957,2.5971,2.6016,2.6031,2.6053,2.6054,2.6065,2.6081,2.6085,2.6133,2.6113,2.6141,2.6191,2.6205,2.6218,2.63,2.6282,2.6309,2.6354,2.6385,2.6395,2.6403,2.6431,2.6442,2.6315,2.6315,2.6315,0,2.5993,2.6046,2.6041,2.608,2.6097,2.6077,2.6121,2.6135,2.6163,2.6175,2.6156,2.6218,2.6228,2.6286,2.6307,2.6318,2.6329,2.6306,2.6394,2.6402,2.641,2.6437,2.6448,2.6318,2.6318,2.6318,2.6317,0,2.6089,2.6126,2.616,2.619,2.6211,2.6253,2.6252,2.6274,2.6266,2.6269,2.6317,2.6329,2.6358,2.6371,2.6363,2.6428,2.6417,2.6396,2.636,2.6425,2.645,2.646,2.6323,2.6322,2.6321,2.632,0,0,2.6189,2.6217,2.6229,2.6243,2.6266,2.6293,2.6333,2.6363,2.6382,2.6402,2.6435,2.6478,2.6459,2.6474,2.6468,2.6496,2.6559,2.6471,2.6471,2.6486,2.663,2.6645,2.6657,2.6548,2.655,2.6552,2.6628,0,2.6265,2.6338,2.6335,2.6402,2.6435,2.6416,2.6451,2.6468,2.6471,2.6499,2.6502,2.6533,2.6506,2.6515,2.6542,2.6546,2.6587,2.654,2.6577,2.6578,2.6572,2.667,2.6686,2.6758,2.6638,2.664,2.6641,0,2.6364,2.639,2.6461,2.6479,2.6493,2.6525,2.6552,2.6579,2.6597,2.6598,2.6616,2.6605,2.6644,2.6608,2.6661,2.6629,2.6644,2.6648,2.6651,2.6653,2.6613,2.6674,2.6781,2.6791,2.6657,2.6655,2.6654,0,2.6429,2.6481,2.653,2.6543,2.6565,2.6588,2.6598,2.6615,2.6633,2.6656,2.6668,2.6695,2.6709,2.673,2.6726,2.67,2.678,2.6744,2.678,2.678,2.6797,2.6795,2.6906,2.6808,2.6808,2.6808,2.6807,0,2.6513,2.6557,2.656,2.659,2.6638,2.6634,2.6681,2.6688,2.6703,2.6733,2.6718,2.6746,2.674,2.6767,2.6764,2.6809,2.6815,2.6816,2.6814,2.6817,2.6817,2.6825,2.682,2.6811,2.681,2.6809,2.6809,0,2.6593,2.6597,2.6649,2.6667,2.6673,2.6707,2.6722,2.6749,2.6752,2.6791,2.6799,2.6803,2.6835,2.6834,2.6869,2.6867,2.6921,2.6914,2.6916,2.6914,2.695,2.6946,2.7069,2.7085,2.6978,2.6979,2.698,0,2.6646,2.668,2.6702,2.6722,2.6735,2.6767,2.6786,2.6783,2.6803,2.6827,2.6851,2.6882,2.6907,2.6958,2.6963,2.699,2.6983,2.7024,2.6987,2.6988,2.6982,2.698,2.6983,2.7031,2.7032,2.7033,2.7034,0,2.674,2.6741,2.677,2.6801,2.6824,2.6847,2.6868,2.6885,2.6884,2.6907,2.6941,2.696,2.6997,2.7027,2.7053,2.7062,2.7048,2.7046,2.7056,2.7058,2.7057,2.7057,2.6935,2.7043,2.7042,2.7042,2.7041,2.7041,2.6808,2.6837,2.6857,2.689,2.6907,2.6927,2.6954,2.6961,2.699,2.7021,2.7017,2.7054,2.7071,2.7105,2.7116,2.7144,2.7129,2.7143,2.7147,2.715,2.7154,2.7054,2.7149,2.7148,2.7148,2.7148,2.7148,0,2.69,2.6913,2.6944,2.6975,2.7001,2.6988,2.701,2.7032,2.7066,2.7084,2.7109,2.7147,2.7177,2.7185,2.7213,2.7234,2.7228,2.7241,2.7239,2.7241,2.7166,2.7154,2.7245,2.7245,2.7245,2.7245,2.7245,2.7245,2.6951,2.7,2.7003,2.7059,2.707,2.7108,2.7122,2.7141,2.7155,2.7199,2.7225,2.723,2.7244,2.7274,2.73,2.7301,2.7312,2.7327,2.7326,2.7256,2.7246,2.7237,2.7226,2.733,2.733,2.7398,2.7399,2.74]}]]